Theta_e
329 330 330 331 333 334 337 337 336 337 337 338 336 336 337 337 338 336 338 339 337 334 335 334 333 334 337 336 334 333 332 333 332 334 332 330 330 329 329 329 328 328 326 326 328 330 331 331 333 332 332 332 333 335 338 337 340 339 337 337 334 335 333 335 333 333 331 331 334 332 334 334 333 333 332 332 332 334 336 334 332 331 331 331 330
330 325 328 330 331 334 336 336 337 334 336 336 335 336 337 337 336 336 338 337 335 335 334 335 337 337 336 334 334 331 331 330 330 333 332 330 331 330 331 329 328 328 325 326 327 327 330 328 330 332 332 333 334 334 335 338 338 338 336 333 332 332 334 334 333 332 329 325 324 326 330 333 335 333 330 330 331 332 334 334 334 331 329 331 332
325 327 328 328 330 331 335 336 335 335 336 336 336 336 336 338 337 337 336 335 335 336 337 339 340 341 340 338 332 331 333 335 331 332 332 330 331 330 331 330 327 326 325 324 325 324 327 330 331 333 333 332 331 332 333 333 334 332 333 330 329 330 332 336 336 333 327 329 329 326 320 322 330 331 331 329 328 330 332 331 331 330 329 330 331
322 324 326 327 330 331 333 334 335 335 336 337 337 336 335 339 337 336 336 336 337 340 341 343 344 344 343 340 336 334 332 334 335 334 332 330 329 330 330 329 327 326 325 323 322 324 326 329 330 331 333 334 331 331 332 330 333 332 331 331 330 327 327 329 333 336 332 331 322 320 322 324 320 321 328 331 331 328 329 329 329 328 329 329 330
321 322 325 327 328 330 331 333 333 336 336 337 337 336 335 338 337 337 336 336 338 341 343 344 342 340 340 341 339 336 334 331 330 328 330 330 330 329 327 328 327 325 327 326 324 325 325 327 327 330 330 333 331 327 329 329 329 330 332 331 330 327 325 332 335 334 334 336 327 323 321 319 320 321 322 326 328 325 327 327 328 328 328 328 328
322 322 323 326 328 331 334 335 335 334 334 336 338 339 339 337 336 337 336 340 342 342 344 341 339 337 335 331 328 328 327 327 327 327 327 326 326 328 328 327 327 328 326 326 325 325 326 326 327 327 328 331 330 329 329 329 328 328 329 331 329 330 329 327 331 336 333 336 334 332 331 320 323 325 323 317 328 329 326 325 327 328 328 328 328
323 324 325 326 327 329 332 333 336 335 335 336 339 339 337 336 335 336 338 342 343 343 342 340 339 337 335 330 330 330 328 329 331 332 330 327 329 329 327 330 328 328 328 327 327 326 327 327 327 325 326 329 331 331 329 328 326 326 329 329 328 329 329 325 326 329 333 333 331 332 333 332 329 325 322 322 318 325 328 324 325 326 327 327 327
323 323 325 326 328 328 328 332 337 337 338 336 335 337 336 336 338 338 342 343 343 343 339 340 339 336 334 332 332 330 330 330 332 333 333 332 331 329 328 329 328 329 328 328 328 326 326 326 327 327 324 326 326 328 328 329 328 328 332 330 330 330 329 327 326 326 325 327 330 330 330 330 329 329 328 325 320 320 321 324 325 326 327 327 327
323 325 325 326 328 328 330 331 333 335 336 338 339 336 339 341 341 342 341 344 343 343 339 340 337 337 335 333 332 332 333 332 333 333 331 332 330 330 329 327 328 329 329 329 327 326 326 326 326 326 325 325 324 325 327 328 329 329 331 331 330 328 329 330 328 326 326 324 326 329 327 326 325 326 326 326 322 319 317 318 320 325 327 327 329
325 325 327 328 328 329 332 332 331 332 333 334 335 340 340 341 342 341 342 344 341 336 339 335 337 338 335 335 333 332 333 333 333 331 331 332 330 330 328 327 326 328 330 329 328 327 327 327 325 324 325 324 324 324 326 326 328 329 329 331 331 329 331 331 329 328 328 328 326 326 325 325 324 323 324 324 324 323 318 317 319 319 318 322 328
325 326 327 327 330 330 331 330 332 332 333 334 334 338 337 340 340 342 341 342 343 338 339 337 338 338 335 334 334 333 332 332 331 331 330 331 329 328 328 328 328 326 329 331 329 327 328 328 327 325 326 327 324 324 325 324 324 326 327 329 329 330 328 329 330 330 329 328 326 325 325 324 323 322 323 324 323 322 320 319 320 320 319 319 324
325 325 326 328 327 329 331 331 332 333 334 333 333 334 337 339 341 340 339 341 341 337 335 338 339 337 337 336 334 334 333 330 330 329 329 327 327 327 327 327 328 329 330 331 331 328 329 328 329 327 325 326 324 324 324 323 323 323 326 328 328 328 329 328 329 328 329 328 328 327 326 326 326 325 324 325 325 324 322 320 319 320 320 321 322
326 326 327 327 327 327 329 331 331 331 330 332 334 334 337 337 338 338 337 338 338 337 337 335 339 339 338 337 336 336 333 332 330 330 330 330 329 328 328 327 327 327 328 328 328 329 329 329 329 327 327 328 327 325 324 322 323 323 324 327 327 327 327 327 325 327 328 326 326 328 327 326 325 326 326 324 325 325 324 320 320 320 317 318 321
326 327 327 329 327 328 330 332 330 331 332 332 333 334 335 334 335 336 334 336 335 338 338 340 341 340 340 339 336 335 335 335 333 331 331 331 331 330 328 328 327 329 328 328 327 327 328 329 329 330 329 329 329 328 326 324 324 322 323 325 326 328 328 329 328 328 328 329 329 326 327 326 326 327 327 325 325 323 321 321 320 320 318 316 319
328 328 329 331 331 332 331 329 330 330 332 333 333 333 335 335 335 333 334 335 337 339 341 341 341 341 340 338 336 337 335 335 335 334 334 331 331 331 331 329 329 330 328 330 330 329 330 330 329 330 328 330 329 328 326 326 327 325 325 326 326 327 327 328 327 327 326 326 329 327 326 326 326 326 325 326 324 325 323 322 321 317 316 317 317
329 329 330 332 332 333 332 331 331 332 332 333 335 335 335 337 336 335 338 337 339 339 340 341 342 341 340 339 338 338 338 337 337 338 337 335 333 331 332 333 333 331 332 331 332 332 330 329 329 328 329 329 330 329 328 327 327 327 325 326 326 325 326 326 325 325 326 327 328 329 327 325 326 326 326 325 325 326 324 324 323 320 315 312 314
327 328 329 330 331 332 333 333 333 333 333 335 336 336 337 338 338 338 338 338 339 340 341 340 340 340 341 341 339 339 339 337 337 337 336 336 336 335 333 332 334 334 333 334 334 334 334 332 331 330 331 330 330 329 328 328 328 328 327 326 327 326 326 324 325 325 325 325 326 326 326 325 325 327 327 326 326 327 325 325 323 321 319 315 310
329 330 331 330 331 333 333 334 334 335 336 336 336 338 338 338 338 337 336 337 339 339 339 338 338 339 341 341 340 339 337 336 338 336 336 336 336 336 335 334 334 334 335 334 335 334 335 334 333 331 331 331 331 330 328 328 329 329 329 327 327 328 327 327 326 325 326 325 324 324 325 324 326 327 325 328 327 327 324 321 320 320 321 317 316
329 330 331 331 332 332 334 334 334 335 336 336 336 337 336 336 337 338 337 338 339 340 340 340 340 340 340 341 340 339 338 339 337 337 337 334 333 335 336 335 336 336 336 336 337 335 336 335 335 333 332 331 332 331 330 329 328 328 329 328 328 328 327 326 328 327 327 326 325 322 322 322 325 325 327 326 325 324 324 323 322 322 321 321 318
328 329 329 330 331 332 332 332 333 333 333 335 336 336 335 336 336 338 338 338 339 339 339 339 338 339 338 340 339 339 339 338 338 338 337 335 335 336 337 338 339 338 337 337 336 335 337 336 332 331 330 331 330 330 330 330 331 330 329 329 329 328 326 326 326 327 325 325 326 324 323 322 322 322 323 324 323 324 326 323 323 322 322 322 320
328 328 329 330 331 332 331 332 333 333 333 334 334 334 334 335 336 338 338 337 337 337 338 338 337 337 338 338 339 338 339 338 339 340 340 340 339 337 337 339 339 339 338 337 337 336 335 333 331 331 331 331 331 331 331 332 331 330 329 329 328 327 326 326 326 327 327 326 325 324 324 324 325 324 324 323 322 323 323 324 324 322 321 322 321
327 329 329 329 331 332 333 332 333 333 333 334 335 335 336 337 336 336 337 337 337 336 337 337 338 339 338 338 340 340 338 338 338 339 338 339 340 341 342 339 339 340 340 337 336 337 337 335 333 331 331 331 330 331 331 331 330 329 329 328 328 327 326 326 326 325 326 325 327 325 323 324 325 324 324 323 322 322 322 322 323 322 321 321 323
327 328 330 331 331 332 331 332 332 333 333 334 335 335 335 335 335 335 335 336 337 337 338 339 338 338 339 339 340 340 339 339 338 339 339 339 340 341 340 339 338 339 339 339 338 337 336 335 334 334 332 333 332 331 332 331 330 329 328 329 328 328 327 326 326 326 325 325 325 325 327 326 327 326 326 326 325 324 323 321 321 322 322 321 322
328 329 331 331 332 331 330 330 330 331 332 332 332 333 334 334 334 335 336 336 337 337 337 338 338 338 339 340 339 339 338 337 337 337 337 339 340 341 339 338 338 338 336 337 337 337 336 336 334 334 333 333 334 334 333 331 330 328 329 329 328 328 327 327 326 325 324 324 323 325 326 327 328 326 325 326 328 326 325 324 322 322 322 321 323
326 327 329 329 328 327 328 329 329 330 330 332 332 333 333 334 335 335 335 337 336 337 337 337 337 337 338 338 336 338 338 337 336 337 336 338 340 339 339 338 338 338 336 335 335 336 336 336 336 334 334 334 333 332 330 331 331 332 330 329 328 327 328 327 327 326 326 325 327 326 327 328 326 325 325 325 326 326 325 327 326 324 323 324 323
326 327 328 327 326 328 329 329 329 330 330 331 332 332 333 333 334 336 335 335 336 336 336 336 336 335 336 336 336 335 335 336 335 335 337 337 336 337 337 337 336 336 337 336 337 336 334 333 332 333 335 334 333 332 330 330 330 332 331 329 329 329 328 328 327 329 328 328 328 327 325 326 326 325 323 325 325 325 325 325 325 324 324 326 324
326 327 327 328 329 330 330 331 330 332 333 332 332 331 332 332 333 334 334 335 335 335 335 334 334 334 335 336 336 337 336 335 335 335 335 335 334 335 334 334 335 336 336 336 334 334 334 332 332 334 332 334 333 332 333 332 332 331 330 331 330 330 332 332 331 331 329 328 327 327 328 328 327 326 325 324 325 326 325 326 328 328 326 326 325
325 326 327 327 328 329 329 329 330 329 330 331 332 331 331 331 331 332 333 334 334 334 333 333 333 333 332 333 334 334 334 334 334 334 334 334 334 334 333 333 333 333 333 332 331 333 334 333 333 332 331 331 330 329 327 327 328 329 330 330 332 332 331 331 332 330 329 328 328 328 328 328 327 326 325 325 325 325 326 326 328 328 327 326 326
323 325 326 326 326 326 327 327 327 328 328 328 329 330 331 331 332 332 333 333 334 334 332 332 332 332 332 332 333 333 333 333 332 332 332 331 331 331 331 332 331 331 332 332 332 332 331 330 330 330 329 328 324 320 317 315 317 323 328 328 328 327 328 329 330 329 328 327 327 328 327 327 326 323 319 318 317 317 323 324 325 325 324 326 322
322 324 325 325 325 324 324 325 325 325 326 326 327 328 328 329 331 331 332 333 333 332 331 331 330 330 331 331 331 331 331 331 331 331 331 331 330 329 330 330 330 330 330 330 329 329 328 329 328 327 327 326 323 319 311 305 304 311 320 325 326 326 326 327 327 326 326 326 326 326 325 323 321 318 315 311 309 310 311 317 321 324 324 323 323
323 323 323 324 324 324 324 324 325 325 326 325 326 327 328 329 329 330 330 332 331 330 330 329 329 330 330 330 329 329 329 328 328 329 329 329 328 328 328 328 328 328 328 328 327 326 324 324 323 322 321 320 319 313 303 297 298 300 311 323 324 325 326 326 325 325 324 325 325 324 323 321 321 318 316 309 309 307 307 308 310 313 315 321 322
322 323 323 322 321 322 323 323 323 324 325 324 324 326 326 328 329 328 328 329 329 328 328 327 327 328 328 328 328 328 327 327 327 326 327 328 328 327 326 326 326 324 323 323 323 322 322 322 322 321 320 320 317 307 296 298 297 297 303 318 323 323 323 323 324 323 323 323 323 323 323 322 321 318 320 320 315 310 308 308 307 308 307 305 304
322 322 321 321 321 322 323 322 322 322 321 322 324 325 326 327 327 328 327 327 326 326 325 324 324 324 326 327 326 326 325 325 325 325 325 325 325 324 323 323 321 321 322 320 319 319 319 320 320 318 319 319 318 304 296 298 297 296 298 308 322 324 321 320 321 320 320 321 321 321 322 322 319 312 316 319 320 319 312 312 311 309 308 303 297
322 322 321 321 321 322 322 322 322 321 321 324 326 326 326 326 325 325 324 325 324 321 320 320 321 322 322 323 323 322 321 322 323 323 323 323 324 322 323 322 320 319 318 316 316 316 317 317 318 318 317 318 317 307 295 296 297 296 297 302 322 320 319 319 319 319 318 319 319 320 319 319 319 319 318 318 320 321 320 320 320 321 318 314 307
321 320 321 322 322 322 322 321 320 320 321 322 322 323 323 323 323 323 322 321 320 318 318 318 318 318 319 319 320 320 320 320 321 321 321 320 320 319 318 318 317 316 316 315 314 314 315 316 317 317 316 316 315 298 294 295 296 297 298 305 321 318 318 318 318 318 318 318 319 318 318 317 317 317 314 311 317 319 319 319 317 316 316 316 316
320 320 321 321 320 321 320 319 320 319 319 321 321 322 321 320 321 321 319 319 319 318 317 317 316 316 317 317 317 317 317 316 316 316 316 316 316 316 316 316 316 316 317 317 317 317 316 316 317 317 317 315 315 294 294 294 294 295 295 318 319 318 317 317 317 317 317 318 318 318 317 316 317 316 309 297 301 311 319 318 317 316 316 315 315
320 320 321 322 322 320 319 318 318 318 318 320 320 320 320 319 319 318 319 319 319 318 318 318 317 317 316 316 316 317 317 316 316 315 315 315 315 316 317 318 317 317 316 316 317 317 317 317 317 317 317 316 317 301 294 294 294 293 302 320 320 319 318 317 317 317 317 317 317 317 318 316 315 314 302 293 294 301 318 318 317 317 316 316 316
320 321 321 321 321 318 317 316 317 317 318 319 319 319 318 318 317 317 318 318 318 317 318 318 318 318 318 319 318 317 316 316 317 316 316 316 317 317 317 319 317 316 316 317 318 317 318 318 318 317 315 317 317 306 294 295 294 294 301 319 318 317 318 317 316 317 317 315 313 309 312 316 314 313 296 293 293 305 317 316 316 316 315 315 314
320 319 319 318 319 317 316 316 316 315 316 317 317 316 314 313 313 313 313 313 314 316 318 318 319 319 319 319 319 318 318 317 316 317 319 318 317 317 318 319 318 319 318 318 315 316 316 319 319 318 310 317 318 311 291 292 292 292 304 318 315 315 314 315 315 313 315 315 314 313 310 311 314 307 292 294 293 304 317 315 315 315 313 313 313
318 320 320 319 318 316 314 314 314 314 316 315 315 314 314 312 312 312 312 312 312 313 314 315 316 318 318 319 320 319 319 318 318 319 319 318 319 320 318 318 318 318 316 315 315 316 315 315 317 319 320 320 318 319 311 288 292 295 293 313 315 312 312 311 312 312 313 313 314 315 310 294 294 293 293 292 293 292 310 317 316 314 313 311 314
318 318 316 317 316 314 312 312 313 314 314 314 314 313 312 313 313 313 312 313 314 315 315 314 315 314 314 314 315 315 317 318 318 318 319 321 319 318 318 319 318 318 316 316 317 317 316 317 317 318 318 319 320 319 318 289 293 291 293 298 316 313 312 312 312 311 312 312 313 314 316 300 293 294 293 293 292 293 295 311 315 316 316 312 308
318 317 316 317 314 314 313 313 314 313 313 314 314 313 312 312 312 311 313 314 314 313 313 312 312 312 313 314 314 315 316 316 316 316 316 316 317 317 317 317 316 316 316 316 317 316 315 314 315 316 318 318 319 319 319 297 291 293 292 290 310 314 313 311 310 311 311 312 314 313 315 303 291 292 292 292 292 292 292 305 318 296 292 293 312
315 315 315 315 313 311 310 311 311 311 311 311 312 310 310 310 309 311 312 312 313 313 312 311 311 311 312 312 313 314 314 315 315 315 314 313 314 315 315 316 316 315 315 315 315 316 315 314 314 314 315 316 318 319 309 316 296 292 293 292 294 306 296 316 310 310 311 310 313 313 315 295 290 290 290 290 290 290 292 303 297 294 295 291 297
313 314 314 313 310 309 309 310 310 311 311 310 310 308 308 309 309 311 312 312 312 312 312 312 312 311 312 312 312 313 314 314 314 313 313 313 313 313 313 313 313 312 312 312 312 313 313 312 312 311 313 313 315 316 310 304 310 293 294 292 292 292 296 311 314 313 312 311 312 313 313 291 291 291 291 290 291 291 300 297 295 294 293 294 305
310 311 311 311 309 309 308 309 310 311 311 310 310 309 309 309 311 311 311 312 312 312 311 311 311 311 312 312 313 314 314 314 314 314 313 313 312 313 312 313 313 312 312 311 312 312 311 311 310 311 311 312 314 313 315 311 300 300 293 292 292 291 291 291 308 314 315 314 305 293 292 291 292 291 291 290 291 291 289 290 290 292 296 306 309
307 309 310 308 307 307 307 307 309 310 310 310 310 310 310 310 311 311 311 311 312 311 311 311 313 313 313 313 313 314 314 314 316 315 314 313 314 313 313 313 312 312 312 312 311 310 310 311 311 311 311 312 313 314 314 318 310 307 301 294 292 291 293 292 299 309 300 295 292 293 292 292 293 295 301 307 310 312 299 293 291 292 304 308 310
306 309 309 306 306 306 306 307 308 310 310 311 312 312 312 313 312 312 312 312 312 312 312 313 313 314 315 316 316 315 313 315 316 316 315 315 314 314 314 312 312 312 312 311 311 310 310 310 310 311 311 311 312 312 313 313 314 313 312 310 306 301 294 294 298 305 304 307 307 304 307 302 302 298 298 299 301 303 307 308 307 305 306 307 308
310 311 309 307 307 307 307 308 309 311 312 312 313 313 315 315 315 315 315 315 315 315 315 316 316 316 315 315 315 315 315 315 315 316 315 315 315 316 314 313 313 313 312 312 311 310 309 310 310 311 310 310 310 311 311 308 307 306 307 307 309 309 312 312 312 314 313 313 313 306 305 311 311 311 310 310 310 310 307 305 306 307 309 309 307
309 310 309 308 309 309 310 310 310 311 312 312 312 312 312 313 312 314 315 314 315 315 314 313 313 311 310 311 313 313 312 312 313 314 314 314 313 313 312 313 315 313 310 308 308 309 309 309 308 308 308 309 309 309 308 297 302 294 299 303 305 306 306 305 303 293 303 307 308 308 310 309 309 308 307 308 307 307 306 308 309 309 308 308 308
309 310 311 311 311 311 310 309 309 310 309 309 308 308 308 309 309 310 310 309 309 309 309 309 308 308 307 308 310 309 309 309 310 310 311 312 305 304 307 310 310 304 296 296 297 305 305 306 306 307 309 305 304 305 296 293 294 293 292 292 293 293 292 297 295 290 296 302 303 304 305 305 306 306 305 305 305 305 306 305 306 301 305 306 305
310 311 311 311 310 310 309 308 307 306 305 305 305 306 306 306 307 307 307 307 306 306 306 306 306 306 304 308 306 307 308 308 308 308 308 307 308 309 296 294 299 300 297 293 293 292 291 291 300 305 304 297 295 293 293 293 292 292 292 292 292 292 292 291 291 296 300 302 302 301 302 303 304 304 303 303 303 304 303 303 304 304 303 304 303
Wind_Speed
12 13 15 17 10 13 11 11 13 14 14 15 14 14 14 12 12 13 11 11 10 10 9 9 9 8 6 6 5 5 5 5 4 3 4 2 1 2 3 1 1 1 1 1 2 2 3 3 4 4 5 6 4 4 4 6 5 4 4 4 4 5 4 3 3 3 3 3 3 4 4 4 5 5 6 5 4 4 3 4 3 3 3 4 4
11 11 12 16 9 9 10 9 12 15 13 15 14 14 13 13 13 12 10 10 10 10 9 9 8 7 6 7 6 6 5 5 5 4 4 4 3 3 3 2 1 1 1 0 1 3 3 3 3 3 4 4 4 4 5 5 5 5 4 4 5 4 4 3 2 3 5 5 4 4 5 5 5 6 6 6 6 5 4 5 4 5 5 4 3
12 13 14 16 11 11 7 8 10 11 13 14 13 13 13 11 11 11 10 10 9 9 9 8 7 6 6 6 6 5 4 3 4 4 4 4 4 4 3 2 1 1 2 3 3 3 3 2 3 2 4 4 4 4 5 5 5 5 5 5 4 5 4 2 3 4 5 2 4 4 5 5 5 5 5 7 5 4 4 5 4 5 6 5 5
15 9 17 20 12 9 9 8 9 11 11 12 12 12 11 9 11 10 10 10 9 9 8 8 7 6 4 6 5 3 5 4 3 4 4 4 5 4 3 3 1 1 1 2 2 3 2 3 3 3 3 4 5 5 5 6 5 6 6 6 5 5 5 4 4 4 4 2 4 5 3 3 5 4 3 2 4 5 5 5 5 4 5 6 5
21 11 10 15 14 12 11 10 10 10 11 11 11 11 8 11 11 11 10 10 9 10 9 8 7 6 5 5 6 5 4 5 5 5 4 4 3 5 3 3 2 1 1 1 2 3 1 2 4 4 4 4 6 5 6 6 7 7 6 5 5 6 6 3 4 4 5 4 5 2 4 5 5 4 3 5 4 4 4 4 4 4 5 5 5
17 16 7 10 12 7 8 8 10 11 12 10 10 9 9 10 11 11 10 9 10 11 9 8 7 7 7 7 7 6 6 6 5 4 4 4 5 4 4 4 2 0 2 2 1 1 2 1 2 5 5 4 4 6 5 6 7 7 6 6 7 6 6 5 4 3 5 5 5 5 1 3 5 3 4 4 3 5 5 4 3 4 4 4 4
15 15 10 10 9 9 8 10 8 10 10 8 5 9 10 10 12 12 10 9 9 10 10 8 8 7 9 8 7 6 6 5 3 2 1 3 2 4 4 3 2 2 2 2 1 1 1 1 2 4 4 5 5 5 6 6 7 7 6 6 6 5 5 6 7 5 4 6 6 7 6 6 6 5 6 5 6 3 4 4 4 3 3 4 5
8 13 10 9 9 8 8 7 7 7 7 10 9 6 10 11 12 12 9 9 10 10 11 9 8 9 9 8 7 6 6 5 5 5 3 1 2 3 4 4 4 2 2 2 2 2 1 2 2 2 3 4 5 6 6 6 6 6 3 6 5 5 5 6 7 6 6 5 5 6 7 7 7 8 8 8 7 6 6 6 5 4 3 4 5
7 7 12 11 10 11 8 6 5 6 5 6 6 8 8 9 10 11 10 9 9 9 8 3 8 8 8 7 7 6 5 4 4 4 4 3 3 4 4 3 3 2 2 2 2 1 1 2 2 3 3 3 4 5 5 6 7 7 5 5 6 6 6 6 7 7 6 6 5 7 7 7 7 7 7 7 7 7 8 6 5 3 4 5 5
4 3 5 10 9 9 9 8 7 5 4 4 1 4 8 8 8 10 10 8 7 5 4 11 10 7 8 7 8 6 5 5 4 4 4 3 4 4 5 4 4 4 4 3 2 2 3 2 4 4 4 4 4 4 3 4 5 6 7 7 7 8 6 6 7 7 7 6 7 6 7 6 7 7 7 7 7 8 8 7 6 6 7 4 3
5 6 6 7 10 10 10 10 9 9 8 6 6 4 5 7 8 9 9 6 8 9 8 11 9 8 8 8 9 8 7 6 5 4 4 3 2 3 4 4 4 3 3 3 3 3 2 3 3 3 3 3 4 4 5 5 6 7 7 7 7 8 7 7 7 8 7 7 8 7 7 8 7 8 7 6 7 7 7 7 7 7 7 7 6
8 8 8 9 8 10 8 8 9 10 10 10 9 4 6 8 8 10 9 8 9 8 6 7 8 9 8 9 8 7 7 5 5 5 4 4 4 3 4 3 4 4 4 2 3 4 3 3 3 4 3 3 4 4 4 5 5 5 6 5 6 7 7 7 7 8 9 8 8 8 8 8 8 8 7 8 7 7 7 8 7 7 8 7 7
6 7 9 10 11 11 9 9 9 8 8 11 10 9 7 8 9 9 8 8 6 8 8 11 8 9 8 9 8 6 6 5 5 4 3 3 3 4 4 4 4 3 3 3 4 5 3 4 4 3 3 3 4 4 3 4 4 4 5 6 6 6 6 6 6 7 8 8 7 7 7 8 8 8 7 8 7 6 7 8 8 9 9 8 6
9 10 8 9 9 10 10 9 9 7 8 9 9 8 8 8 10 8 9 9 9 11 11 10 9 8 7 7 7 6 6 5 4 3 4 3 2 3 4 4 4 3 3 3 3 3 4 4 4 4 4 4 4 4 4 4 3 5 6 6 7 6 6 6 6 7 7 8 8 8 8 8 8 7 7 6 7 7 7 7 7 7 9 9 8
7 7 8 9 9 9 9 9 7 8 9 9 8 9 9 9 9 9 11 11 11 11 9 9 7 7 6 7 7 6 5 5 4 3 2 3 4 4 4 4 4 4 3 3 3 3 3 4 3 5 5 5 4 4 4 4 4 4 4 4 5 5 6 6 6 7 7 7 8 7 8 8 7 7 7 7 7 7 6 6 6 8 8 8 9
7 7 8 9 9 9 8 8 9 9 10 8 8 7 8 8 10 11 10 10 9 9 9 8 7 6 7 8 7 6 5 4 3 3 3 4 4 4 4 4 4 4 4 3 3 4 4 5 6 7 6 6 6 6 6 5 5 5 5 4 5 4 5 7 7 7 8 8 7 7 7 8 7 7 7 6 6 7 7 6 6 7 9 10 9
7 8 8 10 10 10 9 9 8 8 8 8 9 9 10 9 9 9 9 8 9 9 8 7 7 7 7 8 8 7 7 6 4 3 4 4 3 3 3 3 3 3 3 3 4 3 4 5 7 7 5 6 7 6 6 6 5 5 5 5 5 5 5 6 5 6 6 6 7 8 7 7 7 7 6 7 6 6 7 7 7 8 9 10 9
8 9 9 9 9 10 9 8 8 8 8 8 9 8 7 7 7 9 8 8 8 8 7 6 7 7 7 8 8 8 7 6 4 4 3 3 4 4 4 5 5 4 3 3 3 4 5 5 6 7 7 7 7 7 7 7 6 5 6 6 6 5 5 5 5 5 5 4 5 7 7 7 7 7 7 7 7 7 7 8 8 7 7 9 8
9 9 8 9 9 9 8 8 8 7 7 7 8 7 7 7 7 7 7 7 7 7 7 6 6 6 6 7 8 7 6 4 4 4 3 4 5 5 5 5 5 5 5 3 4 6 5 5 5 6 6 7 7 7 7 7 8 7 6 7 7 6 6 6 6 5 5 5 5 6 6 6 6 6 6 6 6 6 6 7 8 7 8 8 9
8 8 8 9 9 9 9 8 9 7 7 7 7 7 8 7 7 7 7 7 7 7 7 7 6 5 5 6 7 6 6 5 4 4 4 5 5 4 4 4 4 4 3 4 5 6 5 5 4 4 5 6 6 6 7 8 7 7 7 7 8 8 9 8 8 7 6 6 6 6 6 5 5 6 6 6 6 7 6 7 7 7 7 7 7
8 8 9 9 9 9 9 8 8 8 7 7 7 7 7 7 6 7 7 7 7 7 6 6 5 6 6 6 6 5 5 5 4 3 4 4 4 5 6 5 4 4 4 4 5 6 6 4 5 5 5 4 4 5 5 5 7 8 8 9 9 10 10 9 9 9 8 8 8 8 7 7 6 6 5 5 6 8 8 6 7 6 6 6 6
9 9 9 9 9 10 9 9 8 8 7 7 6 7 7 7 6 6 6 6 7 6 6 6 6 5 6 6 6 5 5 5 4 4 5 6 6 5 4 5 5 5 5 6 6 6 5 5 6 7 6 5 5 5 5 6 6 7 7 7 8 9 10 11 9 9 9 8 7 8 9 9 8 7 7 8 8 9 9 8 4 4 7 9 9
9 9 8 10 11 10 9 9 9 9 8 8 7 7 7 7 7 6 6 6 6 6 6 5 5 5 5 4 3 3 2 3 4 4 4 4 4 4 4 4 4 5 5 5 5 5 6 6 6 5 6 6 5 7 5 7 8 6 6 7 6 6 6 7 8 8 9 10 9 6 3 6 8 9 9 9 9 9 8 7 9 9 10 10 10
8 7 9 10 10 9 9 9 9 8 8 7 7 7 7 6 7 7 7 7 6 5 5 4 4 4 4 3 3 2 3 3 2 2 3 3 3 2 3 3 4 4 5 4 5 6 5 6 7 8 8 7 7 7 5 5 8 10 8 6 4 5 6 4 7 8 8 7 6 6 6 8 6 6 8 6 7 9 8 9 11 11 10 11 10
9 9 9 10 11 10 10 9 9 8 8 7 8 8 8 8 7 7 7 6 6 5 5 5 5 5 4 3 2 1 1 2 2 2 2 2 2 2 2 3 3 3 3 4 4 4 5 5 5 6 7 7 6 5 5 5 5 4 5 6 6 6 6 7 9 10 10 9 7 8 8 9 10 9 9 9 9 10 10 8 8 9 10 8 10
11 12 11 11 10 10 10 10 9 9 9 8 8 8 8 8 8 7 7 7 6 6 5 5 5 5 4 4 3 2 1 1 1 0 1 1 1 1 1 2 2 2 2 2 3 2 3 4 4 5 4 3 2 3 3 4 6 6 5 6 6 7 8 8 9 8 8 8 6 5 6 9 9 8 8 9 9 11 11 11 12 12 9 8 10
12 12 11 12 12 12 12 11 10 10 9 9 9 9 9 9 9 8 8 8 7 7 7 6 5 5 5 5 3 3 2 3 3 2 2 2 3 2 1 1 2 2 1 2 2 3 1 5 4 3 4 4 4 4 4 3 4 4 5 5 5 8 6 5 6 6 5 5 5 6 7 7 6 6 7 7 8 9 9 11 9 9 9 8 7
12 13 13 13 13 13 12 12 11 10 10 10 10 9 9 9 9 8 8 7 7 7 7 7 7 6 6 6 5 5 5 5 5 4 4 3 2 2 3 4 3 2 2 3 3 2 2 3 4 4 5 4 3 3 3 4 4 4 5 5 5 5 6 5 4 4 3 3 4 5 5 6 6 5 3 4 5 6 7 7 7 6 7 8 8
13 13 13 13 12 12 12 12 11 11 11 10 10 10 9 9 9 9 8 8 8 9 10 9 8 7 7 6 6 6 6 6 6 6 6 6 6 5 4 4 4 3 2 3 3 3 3 3 3 4 4 3 4 5 5 6 6 7 5 6 5 5 6 5 4 3 2 3 3 3 3 3 5 8 9 7 6 4 4 5 5 5 6 6 7
12 12 13 13 13 12 12 11 11 10 10 10 9 9 9 8 9 9 8 8 8 9 9 8 8 8 8 7 7 7 7 7 7 6 6 5 6 6 5 5 5 4 4 4 3 2 2 2 2 3 3 3 4 4 9 11 8 6 7 6 5 5 5 4 4 3 3 3 1 2 3 7 8 8 8 6 5 5 5 4 4 5 6 7 7
13 12 13 13 12 12 12 12 11 10 10 9 8 8 8 9 9 9 9 8 8 8 8 8 8 8 8 7 7 7 7 8 7 5 5 6 6 5 5 5 5 5 4 4 4 4 4 5 5 5 5 5 4 6 10 8 8 7 7 5 5 4 4 4 4 3 3 3 4 1 4 2 1 3 4 5 3 3 2 3 4 5 5 4 6
13 13 13 12 11 11 12 11 10 10 9 8 8 7 8 10 9 9 8 8 8 7 7 6 6 6 7 7 6 6 6 6 6 6 5 5 6 5 4 5 5 5 5 4 4 5 5 5 5 5 5 4 4 7 9 9 8 7 7 6 5 3 2 3 3 2 3 3 2 1 0 1 1 4 3 3 4 3 1 3 5 7 8 8 6
12 13 12 11 11 11 11 10 10 9 8 9 8 8 9 9 10 8 6 7 7 8 8 7 7 7 7 6 5 5 6 6 6 6 5 4 4 5 5 5 5 4 4 5 6 5 5 5 4 5 5 5 5 8 10 9 9 7 8 7 6 3 3 2 3 3 3 2 3 3 2 2 1 2 4 1 2 4 5 5 9 9 9 8 6
11 11 11 10 10 10 10 11 10 10 10 9 9 10 9 8 7 6 7 7 8 9 9 9 9 8 8 7 6 6 6 6 6 6 5 5 6 6 5 5 5 5 5 6 6 6 5 5 5 5 5 5 5 7 9 9 9 10 9 8 2 2 2 3 3 3 3 4 4 4 3 0 1 1 2 4 2 4 4 9 8 5 4 8 7
11 11 11 11 11 10 10 10 10 9 8 8 9 8 7 7 6 7 7 9 9 9 9 9 9 9 8 8 8 8 8 7 7 7 7 7 6 5 5 5 5 5 6 6 6 6 6 6 5 5 5 5 5 6 7 9 9 10 10 9 3 2 1 2 2 2 2 2 2 2 2 2 2 2 3 5 6 2 2 1 1 1 1 1 1
11 11 10 10 11 10 10 8 7 7 8 9 8 7 8 9 9 8 8 9 9 9 9 8 8 8 8 8 8 7 7 7 7 7 7 7 7 6 6 5 5 5 5 5 5 5 5 6 5 5 4 5 4 4 6 7 9 10 11 8 2 1 1 1 1 1 2 1 1 1 1 2 2 3 4 8 9 8 3 2 2 2 3 2 2
11 11 11 11 10 10 9 9 9 9 9 8 7 8 8 7 8 8 8 8 8 8 8 8 8 8 8 8 8 7 7 7 7 7 7 7 6 6 5 4 5 4 4 4 4 4 4 4 4 4 4 3 4 3 2 5 7 10 10 2 1 1 2 2 2 1 1 1 1 1 1 2 2 3 4 9 11 13 3 1 1 1 1 2 3
12 12 11 11 10 10 11 10 10 9 9 8 8 8 8 8 8 8 7 7 7 7 7 7 7 7 7 7 7 7 7 7 7 7 6 5 5 4 4 3 4 3 4 3 2 2 2 2 2 3 3 2 3 4 2 2 6 9 9 5 1 2 0 1 1 1 1 2 4 4 7 2 3 3 3 7 10 10 4 0 1 2 2 2 3
12 11 11 11 10 10 11 10 10 10 9 8 8 8 8 8 8 8 8 8 8 7 7 7 6 6 6 7 6 7 6 6 6 5 4 4 4 4 3 2 2 2 1 1 3 2 2 2 0 2 2 4 1 5 5 3 4 5 7 5 2 1 1 1 1 2 1 2 4 4 1 5 3 3 1 6 8 8 5 1 2 2 1 1 2
12 11 11 11 10 10 11 10 10 9 8 8 8 9 9 8 9 8 9 8 8 7 7 6 6 6 5 6 5 6 5 5 5 4 3 3 2 1 2 2 3 3 2 3 3 3 3 3 2 3 3 3 3 2 7 5 2 3 5 5 3 1 0 1 2 2 3 3 3 4 7 6 5 5 4 5 8 7 7 5 4 3 2 1 2
12 11 9 9 9 9 10 9 8 8 8 8 8 8 9 8 8 8 8 7 6 6 6 6 5 6 6 6 5 5 5 4 4 3 2 1 2 2 2 2 3 2 3 3 3 4 4 4 3 3 4 4 4 4 7 7 6 5 5 5 3 1 2 3 3 4 4 3 3 3 4 11 10 8 6 5 6 7 7 6 6 4 4 4 6
11 8 9 9 9 9 9 9 8 8 8 8 7 8 8 8 8 8 7 6 6 6 6 6 6 6 6 5 5 5 4 4 4 4 4 3 2 3 3 3 3 3 4 4 4 4 4 4 4 4 4 4 4 8 4 9 8 8 7 6 5 3 3 5 5 5 6 4 4 3 1 9 10 10 8 7 7 6 7 6 4 4 3 2 3
9 9 8 8 8 9 9 9 8 8 8 8 8 8 8 7 8 8 7 7 6 5 6 6 6 6 6 6 5 5 4 3 4 4 4 4 4 4 4 4 5 5 5 5 5 5 5 5 4 4 4 4 4 6 11 8 11 10 10 9 10 8 2 5 6 6 6 6 6 6 3 11 9 9 8 8 9 8 7 8 8 2 2 2 5
8 8 8 8 9 9 9 9 9 8 8 8 9 9 9 9 9 7 7 6 6 6 5 5 4 5 5 5 4 3 3 3 4 4 4 4 4 4 5 5 4 5 5 5 5 5 5 5 5 4 4 4 3 4 9 12 9 13 12 12 11 10 7 7 7 8 7 7 8 7 3 9 8 8 8 9 9 9 8 10 7 7 6 6 5
9 8 8 8 9 9 9 10 9 9 9 9 8 9 9 8 7 6 7 7 6 6 5 4 4 4 4 4 4 4 3 3 4 3 4 4 4 4 5 4 5 5 5 5 5 5 5 5 5 5 5 5 4 4 3 10 14 12 13 13 12 11 12 8 7 9 10 8 6 7 1 6 6 8 9 9 10 13 16 14 13 9 8 6 7
9 8 7 8 9 9 9 9 8 8 7 8 8 8 8 7 6 5 5 5 5 5 5 4 4 4 4 4 5 4 4 4 4 4 4 4 5 5 5 5 5 4 5 5 6 6 6 6 6 7 6 6 7 6 7 3 10 10 10 13 15 13 12 13 12 10 13 14 14 14 12 12 11 10 8 8 9 9 12 15 12 10 7 8 9
5 3 3 7 7 7 8 8 8 7 7 7 8 7 7 6 6 5 5 4 4 4 4 3 4 5 4 4 6 5 6 5 4 5 5 5 5 5 5 6 6 6 6 7 7 7 8 8 8 8 9 9 8 8 8 9 7 4 4 4 8 8 11 8 7 9 11 11 13 13 12 12 10 10 10 11 11 11 8 8 8 9 10 10 10
2 1 5 7 7 7 7 7 8 7 7 7 7 7 7 7 6 6 6 5 5 5 5 6 6 5 6 6 6 4 5 6 5 5 6 5 6 6 7 7 8 7 8 8 8 9 9 10 10 10 10 10 11 11 9 11 11 10 9 9 10 9 4 5 6 5 7 9 9 9 11 9 9 10 10 10 11 11 12 12 12 11 11 11 12
6 6 6 6 7 8 8 9 8 7 7 8 8 8 8 9 8 8 8 8 7 7 7 7 6 7 7 7 6 6 6 6 6 6 5 5 5 6 6 6 6 7 7 6 7 7 8 9 9 9 9 9 9 9 10 13 10 7 7 9 9 8 8 9 8 10 10 11 11 11 11 11 11 11 11 12 12 12 11 11 12 11 11 11 10
6 6 7 8 8 9 9 9 8 8 8 9 9 9 9 9 9 9 9 9 8 7 7 6 6 6 8 8 7 6 7 7 7 7 7 7 1 7 3 4 5 8 5 2 1 4 6 6 7 6 7 8 8 9 13 15 14 12 7 6 8 9 9 8 10 11 6 7 8 10 11 12 11 11 12 13 13 13 13 13 12 12 11 10 10
7 8 8 9 9 10 10 10 8 8 9 9 9 9 9 9 9 9 10 9 9 8 7 7 8 8 8 8 8 8 8 8 8 8 8 8 9 3 9 5 2 1 3 5 2 6 6 5 3 6 7 6 5 9 11 13 14 14 13 8 6 7 8 7 5 5 4 4 6 8 9 9 10 11 12 12 11 12 11 12 12 10 10 10 8
Wind_Direction
152 150 139 136 149 148 144 147 149 150 157 163 167 170 169 166 161 162 163 164 165 167 172 172 175 174 180 175 174 169 160 153 169 157 174 153 124 133 128 131 60 43 353 181 202 197 213 195 201 218 209 218 188 228 215 186 194 192 197 222 230 243 224 217 238 239 241 236 205 251 242 241 240 242 249 238 232 219 206 207 207 231 216 190 203
153 154 145 118 147 142 141 145 149 153 162 167 169 172 172 167 165 163 163 166 170 174 172 174 175 179 177 171 178 163 157 173 163 164 198 132 168 130 140 147 92 116 103 84 212 223 205 204 201 209 219 221 222 211 223 201 190 197 204 222 233 240 246 233 209 223 226 257 250 210 222 215 236 243 249 249 242 228 220 206 203 218 219 213 202
130 160 152 128 142 154 140 138 150 156 159 164 167 173 169 168 168 164 165 167 170 173 173 173 172 169 191 144 181 155 145 174 153 152 177 153 159 159 157 169 236 141 138 131 178 184 205 215 219 200 241 197 207 207 210 218 217 219 220 236 238 230 250 238 225 231 275 212 260 300 279 275 196 224 237 252 253 248 227 225 219 214 215 220 199
85 115 145 136 145 155 147 145 152 162 164 161 168 170 169 167 169 166 166 171 170 168 174 165 158 146 143 139 163 173 143 152 143 154 169 164 167 179 174 176 224 297 83 143 113 95 185 205 213 229 217 239 231 209 210 219 212 230 224 232 238 252 238 235 231 233 263 237 252 264 275 238 268 243 248 235 238 239 236 233 224 220 222 207 210
107 74 100 122 138 157 163 157 156 161 165 161 164 169 170 169 167 168 166 171 172 166 170 158 145 144 133 138 146 136 156 174 186 172 178 180 188 179 186 194 191 244 94 341 104 121 137 199 222 213 227 225 236 219 220 233 220 222 235 253 247 255 247 248 233 232 233 245 278 267 252 260 251 276 294 264 246 244 217 231 219 241 229 212 212
103 109 89 110 129 122 139 153 161 168 167 162 167 168 166 168 167 169 168 171 170 169 167 164 171 167 165 170 171 180 177 188 179 174 171 183 196 180 182 192 200 157 180 174 43 73 129 181 222 230 209 226 233 246 233 226 239 237 220 226 244 239 267 248 253 258 263 256 250 269 319 253 301 332 311 290 247 263 283 251 250 234 223 234 226
89 103 116 123 124 143 136 162 157 165 159 152 172 165 167 169 170 173 171 172 172 171 170 175 176 177 181 180 172 173 175 175 170 144 175 155 186 181 190 193 193 178 239 150 160 191 182 200 193 237 226 218 224 241 244 241 236 236 248 239 244 251 234 261 249 244 250 250 253 258 264 259 262 273 273 286 282 276 257 279 256 227 243 246 230
95 131 133 135 138 132 142 151 165 163 147 153 165 186 172 173 171 175 172 176 179 171 175 182 183 176 186 190 177 185 181 174 175 173 179 161 199 193 197 190 209 206 190 210 177 189 201 216 212 249 262 221 220 218 232 239 253 246 256 262 265 275 265 258 267 261 252 258 259 268 255 254 255 264 267 276 286 278 263 230 225 229 248 251 269
61 96 143 146 146 128 142 156 149 130 115 131 152 177 170 168 172 177 178 177 182 167 169 163 199 183 182 186 183 190 185 180 182 160 172 182 200 193 226 205 199 214 219 199 207 237 196 223 228 225 224 246 221 228 223 232 236 256 233 241 244 249 250 258 267 273 265 263 249 245 256 260 261 253 262 267 272 279 273 262 256 213 238 248 242
78 78 94 127 128 133 155 158 125 104 99 127 174 202 170 167 176 179 176 181 144 123 194 179 222 187 181 193 193 185 186 181 186 156 183 175 197 202 207 219 212 193 203 209 226 208 228 218 222 210 211 225 243 241 224 239 246 240 238 240 242 247 248 252 257 263 266 271 267 264 260 262 264 267 254 251 252 255 271 283 286 278 263 253 249
177 158 145 136 133 136 154 155 150 150 146 161 189 181 166 168 183 185 177 149 123 158 212 185 202 185 192 196 198 195 190 181 176 168 174 182 219 171 196 199 229 202 179 192 218 232 212 251 276 225 213 212 236 239 229 234 228 231 239 234 236 237 241 243 246 252 261 262 261 257 248 250 260 268 270 271 273 272 274 275 277 274 281 277 240
164 167 165 140 130 139 156 152 156 158 155 166 179 181 172 178 177 183 171 155 165 169 210 230 193 194 198 201 203 200 196 188 183 184 179 187 159 169 166 186 184 186 195 202 225 231 221 238 233 254 220 220 224 238 240 235 237 236 230 231 232 233 243 247 248 249 249 254 258 264 266 268 264 262 266 268 270 275 278 278 279 280 269 271 263
153 160 162 153 152 147 168 157 147 150 163 170 168 176 163 171 176 177 172 173 154 179 192 221 199 198 200 202 205 208 201 200 193 170 201 187 181 163 169 180 177 186 195 212 197 215 231 214 240 238 236 216 247 263 232 238 249 241 236 227 231 231 225 235 243 244 247 248 249 250 259 262 258 258 257 267 270 273 276 282 280 283 276 271 273
165 147 158 152 152 154 158 146 146 148 153 154 163 173 171 170 178 182 172 176 172 205 197 204 200 203 209 210 203 205 209 211 210 196 173 185 188 221 188 191 200 207 209 210 244 213 186 201 219 238 236 232 228 237 257 254 220 229 217 229 234 231 239 235 239 247 246 246 248 251 248 247 258 275 280 270 267 262 264 274 289 288 286 287 293
132 136 146 142 143 144 142 142 151 147 159 157 163 179 188 183 170 184 188 188 186 190 197 197 194 195 203 211 205 208 213 201 205 209 238 199 200 201 223 199 213 221 225 229 230 236 238 251 227 223 225 234 238 240 237 235 231 248 244 233 242 247 245 244 249 249 245 237 235 243 248 251 258 261 257 261 266 267 262 260 268 282 275 266 271
124 127 132 135 136 131 135 138 149 158 157 166 175 178 184 188 180 190 188 181 182 187 192 193 195 195 205 212 213 211 217 216 207 211 204 232 212 222 195 226 234 232 247 278 254 270 269 250 228 227 231 234 230 234 234 236 219 232 252 244 244 239 240 246 248 248 254 261 257 242 244 253 241 237 250 246 257 274 273 274 265 264 272 274 274
124 124 126 135 135 131 135 141 150 156 170 171 175 180 187 185 181 183 182 180 182 184 191 195 198 204 205 212 213 210 210 211 218 205 223 214 240 263 279 263 255 265 262 241 261 258 265 267 272 269 235 230 239 240 244 241 239 239 245 245 254 261 258 258 255 259 258 254 254 254 251 246 252 258 259 271 264 261 267 271 271 268 269 275 274
125 119 120 121 125 128 134 143 150 160 163 166 173 174 176 180 186 181 185 187 185 184 192 193 192 201 203 211 214 216 206 203 184 190 186 206 211 222 232 235 241 247 250 275 275 263 256 245 250 247 252 249 246 246 250 252 248 243 249 258 255 253 251 251 256 256 256 261 258 261 253 252 254 262 254 244 254 262 263 267 267 261 261 263 271
122 121 121 125 129 129 131 133 137 140 151 159 158 161 159 171 171 177 180 182 181 181 183 190 192 198 196 200 201 202 203 192 182 193 191 218 231 234 243 249 254 254 257 260 266 270 266 257 248 254 244 242 242 245 247 253 255 252 253 260 259 252 250 254 253 255 252 247 249 252 256 256 257 257 265 265 263 258 250 249 250 249 254 255 259
112 113 115 114 117 122 129 134 131 136 139 145 149 157 163 161 158 164 166 166 168 175 181 182 191 195 191 187 191 195 192 190 185 198 204 224 240 244 235 232 244 253 252 263 273 276 280 275 266 260 252 242 240 236 243 245 238 243 249 249 254 256 251 249 251 242 243 244 240 244 241 247 239 237 236 242 248 251 263 271 272 266 252 251 260
107 116 118 121 121 121 125 125 125 130 135 139 148 153 148 148 150 151 155 161 168 172 179 181 181 189 198 199 191 205 210 214 208 207 244 243 249 252 255 258 257 259 263 255 255 265 267 252 258 259 258 252 246 247 245 252 255 250 246 250 256 252 252 253 251 253 250 249 252 256 253 239 233 242 254 250 248 251 244 234 249 260 277 275 255
105 111 117 123 128 127 127 128 131 139 142 136 139 142 137 133 136 139 153 156 158 168 175 172 181 181 192 193 195 189 203 226 230 227 241 250 249 241 244 256 257 262 267 268 262 260 250 240 249 253 252 256 274 277 274 267 267 270 265 262 257 259 261 263 267 261 253 258 258 259 263 270 268 260 253 256 250 243 243 244 236 238 246 249 244
105 111 114 115 111 110 111 118 122 123 120 123 126 125 126 126 134 145 147 146 156 159 166 166 165 166 170 179 190 186 208 224 234 244 246 248 251 251 245 252 262 266 260 267 270 265 266 264 256 248 251 255 244 258 265 265 267 265 268 262 259 262 260 259 257 259 266 268 260 256 279 285 273 266 263 264 271 278 285 269 251 253 253 254 253
94 104 109 104 104 104 111 107 109 111 115 117 121 119 122 129 134 131 130 133 135 139 143 145 147 134 141 142 154 150 185 215 225 213 248 255 252 264 265 264 272 283 278 266 273 265 253 251 251 252 248 248 249 248 249 255 248 247 249 259 255 250 251 265 271 267 270 262 250 251 248 262 270 271 270 282 273 260 251 255 263 265 273 271 257
109 107 102 104 111 121 115 119 113 115 117 120 119 119 117 114 113 113 113 116 116 119 119 120 117 117 109 112 123 153 190 201 204 236 250 250 271 291 294 281 273 254 257 260 234 238 249 251 256 256 252 250 254 253 247 241 252 251 248 247 251 254 251 237 245 249 249 255 266 270 273 268 259 258 272 271 264 256 258 257 254 256 247 254 266
107 106 104 100 97 95 97 98 103 105 108 109 106 103 101 103 100 103 103 101 96 97 103 106 107 107 112 115 109 98 169 138 77 320 288 321 331 292 281 289 287 276 266 280 282 274 279 268 286 301 275 266 233 231 225 215 243 250 249 239 236 241 249 251 254 249 248 246 239 261 266 264 262 260 263 261 262 264 259 256 253 255 263 253 255
104 104 105 105 100 99 101 101 100 101 100 98 96 96 95 92 88 85 84 85 85 86 84 85 87 93 104 100 107 102 88 99 109 111 79 59 53 32 14 340 337 312 301 266 284 288 299 4 355 4 358 10 31 30 26 1 333 324 319 304 292 271 258 259 258 257 254 249 230 244 245 249 257 254 257 266 268 264 255 254 260 264 260 268 264
105 102 99 96 96 95 94 92 92 92 92 91 90 91 93 95 93 92 93 94 100 100 98 96 95 91 83 83 78 75 65 63 68 63 64 68 60 62 44 45 29 22 4 8 355 12 26 48 38 37 36 35 28 24 12 339 314 301 293 288 283 283 278 265 260 270 269 248 242 251 259 264 270 291 317 288 278 283 287 272 271 276 276 264 262
107 102 100 97 93 91 89 87 85 82 80 81 87 89 88 88 90 89 85 88 95 94 89 88 86 85 85 88 89 86 89 95 92 81 72 66 65 64 69 75 67 43 27 31 38 38 56 54 50 45 46 41 46 38 26 356 338 321 296 285 295 297 293 289 297 285 285 304 301 303 312 7 53 71 62 52 46 19 319 301 300 299 292 288 278
109 107 101 96 91 89 86 80 77 76 79 81 76 76 80 81 83 85 86 86 87 85 89 89 88 86 84 81 80 78 73 74 76 79 78 80 75 69 71 77 78 76 75 65 67 55 49 60 60 45 38 34 44 42 11 352 336 321 311 295 288 284 284 285 285 281 278 283 226 230 100 75 62 63 73 66 59 35 23 358 322 311 304 298 291
111 105 101 95 90 88 84 80 78 79 77 75 79 81 83 78 69 67 73 80 84 88 84 79 78 81 84 83 80 76 74 71 70 75 91 96 87 81 77 81 79 68 56 45 42 52 47 35 47 56 52 47 43 26 356 335 330 317 296 285 285 283 284 282 259 266 281 226 242 223 100 113 127 129 130 113 78 59 30 356 28 46 27 310 288
113 106 100 95 88 80 76 74 74 73 74 80 83 87 85 83 87 84 79 76 72 70 70 74 79 84 85 84 83 84 82 81 79 74 68 78 92 90 81 70 67 65 61 63 60 47 45 39 42 53 57 56 57 22 350 348 337 323 305 300 284 286 303 301 319 313 286 303 289 218 116 321 22 352 311 184 160 152 209 111 89 86 77 61 43
108 102 98 94 87 79 72 70 71 69 74 77 77 78 77 81 83 92 96 87 77 72 70 70 72 77 85 86 78 71 69 68 69 72 68 77 83 78 75 84 85 83 81 63 57 52 50 48 48 52 50 48 53 33 348 349 340 337 310 297 290 8 317 339 319 314 323 281 287 285 251 262 77 291 262 301 243 175 170 173 142 127 112 104 96
105 103 99 89 83 78 75 73 71 72 74 73 73 80 87 92 93 91 84 83 79 74 72 70 69 66 64 67 72 76 82 83 90 93 87 78 83 87 88 85 85 79 68 65 61 56 53 52 46 54 58 51 45 20 341 345 341 336 324 310 6 23 3 329 332 333 326 313 311 308 286 240 302 308 347 309 272 262 200 175 177 189 128 132 150
104 95 87 88 86 81 75 68 65 69 76 87 96 97 92 93 98 92 81 78 74 77 72 68 68 69 70 72 75 75 73 72 72 71 73 77 79 82 76 73 69 66 66 63 65 65 57 53 52 51 56 49 52 11 345 343 339 321 313 305 49 349 348 12 2 10 338 9 335 321 326 327 0 2 3 328 305 269 231 236 176 134 234 341 14
101 103 102 97 85 79 75 73 79 78 85 92 93 94 92 85 83 85 90 87 78 71 73 73 74 74 79 82 84 84 85 84 81 82 81 80 79 77 79 75 71 69 64 64 61 57 56 53 46 43 50 57 72 36 339 330 325 315 328 290 60 79 60 78 90 21 4 28 359 353 7 36 30 17 24 331 315 312 278 183 155 152 141 146 106
108 107 101 93 92 86 78 72 67 70 75 77 79 79 85 91 93 89 81 78 78 79 76 73 69 69 70 74 76 77 76 79 80 80 76 76 74 69 61 54 61 54 54 49 52 47 43 44 40 35 28 65 81 100 348 316 312 313 297 283 29 35 67 68 56 99 203 56 18 356 350 55 49 58 14 330 321 321 295 166 159 172 151 161 132
108 104 102 96 90 88 80 77 78 75 82 87 82 81 80 79 76 74 77 80 80 79 75 66 65 65 64 60 64 69 72 70 69 65 67 63 57 54 49 16 26 30 35 15 338 49 14 44 19 24 16 344 93 125 208 280 305 315 312 309 299 90 90 123 130 139 100 104 70 349 323 3 55 60 34 313 317 313 307 1 206 203 178 162 133
114 110 105 99 91 86 84 80 77 78 76 76 84 95 95 90 88 85 83 78 73 68 65 68 68 65 64 60 56 57 57 63 63 56 45 47 42 37 28 351 353 312 354 304 343 337 341 283 35 299 156 281 54 145 171 192 276 309 314 312 329 7 71 356 204 153 183 157 149 164 275 354 27 73 314 303 315 317 312 352 297 243 212 144 107
108 103 97 97 101 92 80 76 76 81 86 87 87 80 73 74 75 79 77 73 67 67 73 75 72 67 63 67 64 59 50 41 55 58 47 30 12 10 4 336 327 312 346 352 318 331 315 315 304 266 235 248 283 191 146 179 207 276 304 314 324 351 270 223 292 297 207 184 196 178 161 160 143 161 234 277 293 317 312 321 299 283 268 167 143
102 103 117 106 88 76 75 73 72 73 78 80 81 84 85 80 75 70 66 63 62 57 58 56 56 55 52 48 42 38 30 32 29 19 22 359 352 344 318 304 301 303 320 305 299 290 292 284 284 275 268 258 247 262 157 167 187 233 254 275 280 301 297 282 279 241 253 245 215 231 164 162 178 185 215 238 274 290 300 304 296 321 7 358 324
89 97 91 85 87 85 79 75 74 82 85 84 80 78 76 73 70 65 59 55 52 49 45 43 39 43 34 30 29 20 8 2 357 351 341 329 340 313 303 297 303 316 300 291 292 292 296 302 295 281 267 265 219 211 242 175 197 206 228 248 275 290 339 294 282 285 278 271 272 262 282 152 168 186 205 222 240 255 271 272 317 54 54 345 295
105 103 96 98 97 87 81 77 71 69 72 73 75 77 75 70 61 52 46 43 42 35 45 45 34 36 32 21 19 9 357 351 341 336 327 323 324 314 309 291 287 291 290 291 289 288 289 293 294 285 289 256 246 203 215 216 192 206 212 229 245 271 97 268 272 280 289 286 280 278 128 141 166 185 206 217 229 237 246 244 257 252 225 271 283
105 101 95 92 90 86 81 72 68 63 65 67 68 66 62 61 56 47 46 45 46 39 32 38 29 28 13 7 356 355 358 335 344 333 322 314 316 317 305 300 303 297 298 299 301 294 289 292 294 300 291 291 253 264 186 209 203 201 212 220 227 239 237 247 277 277 282 287 282 282 113 152 171 193 210 223 235 230 243 257 236 217 204 222 256
51 58 75 84 84 85 79 72 63 57 53 57 57 60 55 50 39 32 36 40 39 43 37 31 22 14 1 359 350 344 352 354 338 323 320 319 315 315 307 313 306 295 295 298 297 295 292 296 299 301 306 299 307 288 287 190 203 198 211 220 226 225 228 231 253 257 259 272 335 354 128 213 221 228 233 242 245 241 239 241 240 223 209 238 236
64 61 55 79 80 76 72 67 59 57 61 54 50 45 42 32 26 25 13 15 14 15 8 356 357 341 342 329 338 328 329 322 298 297 296 301 303 303 308 313 306 298 304 306 307 311 309 305 305 304 306 309 299 307 295 260 183 203 213 219 222 217 224 220 235 274 292 296 292 280 282 277 269 253 244 238 243 249 220 224 219 199 219 234 244
63 17 53 90 88 81 76 71 69 60 56 50 43 36 26 20 18 11 4 360 354 349 337 327 339 333 326 328 312 332 330 306 292 295 299 299 301 303 305 298 298 310 313 313 310 315 311 312 317 310 306 304 305 308 306 306 322 324 310 249 205 218 221 229 234 246 250 257 252 249 251 247 253 263 260 273 276 275 260 218 208 207 224 231 235
72 35 95 93 86 82 73 67 63 54 51 47 41 35 26 13 11 7 353 351 353 359 342 357 353 357 355 349 333 332 299 319 330 321 314 318 321 329 322 322 327 329 323 322 321 315 312 310 308 309 306 302 301 297 317 11 359 347 335 319 315 312 290 231 249 286 293 275 272 245 224 234 236 236 237 235 239 240 242 246 246 241 229 224 229
92 79 86 87 87 80 74 69 66 64 65 62 53 45 39 35 31 26 20 23 23 25 26 25 19 24 9 356 347 350 347 337 334 333 339 337 344 341 342 340 11 17 11 349 336 329 336 345 338 332 331 329 324 332 356 349 354 3 332 328 329 329 335 321 344 357 325 310 296 278 273 267 266 261 260 262 264 260 254 249 242 244 260 257 241
109 105 95 87 79 81 81 76 69 63 62 59 55 50 43 39 34 30 27 29 24 21 23 21 13 11 7 349 343 343 346 338 336 334 332 331 263 205 283 337 359 62 74 60 305 332 341 341 340 338 356 347 341 339 335 333 329 331 330 296 286 291 296 296 311 317 299 295 286 287 284 284 288 288 281 277 275 273 273 269 273 259 252 251 261
106 97 85 83 83 82 79 73 68 65 64 59 52 46 42 36 32 30 25 20 18 10 9 6 4 4 357 338 338 340 341 335 335 337 333 333 331 306 195 211 322 302 304 316 260 249 276 294 312 344 349 354 342 329 325 321 320 319 321 317 297 280 278 281 288 307 271 257 273 274 277 277 270 268 270 268 273 278 286 293 295 305 310 297 270